User: anonymous   Login
Location: Unspecified
(0.0000°N, 0.0000°E)
Time: 00:38:21
(UTC+00:00)
Language:

Uosat F - Orbit

View from above orbital plane
View from above orbital plane
View from above satellite
View from above satellite

Ground track
Ground track

The orbit data is extracted from the following two-line orbital elements,

1 21575U 91050B   17206.55372337 +.00000001 +00000-0 +14780-4 0  9991
2 21575 098.7560 223.8730 0007285 177.0892 183.0340 14.40805149366604
Epoch (UTC): 25 July 2017 13:17:21
Eccentricity: 0.0007285
inclination: 98.7560°
perigee height: 750 km
apogee height: 761 km
right ascension of ascending node: 223.8730°
argument of perigee: 177.0892°
revolutions per day: 14.40805149
mean anomaly at epoch: 183.0340°
orbit number at epoch: 36660

The dashed part of the orbit path shows where the satellite is in the earth's shadow,  

DLR